OAS4841 SKUI-SKBO

Flight info

Callsign OAS4841
Flight time 0h 32m
Altitude 25000
Route ALBE1B ALBEL DCT EDPUL EDPU5E
Aircraft A320/M-SDE3FGHIRWY/LB1

Departure

Time 2026-05-07 00:52
Airport El Caraño Airport (SKUI)

Arrival

Time 2026-05-07 01:24
Airport El Dorado International Airport (SKBO)
Time Latitude Longitude Altitude Speed Heading
2026-05-07 00:38 5.69154 -76.64430 199 ft 0 kts 211°
2026-05-07 00:44 5.69171 -76.64421 202 ft 4 kts 181°
2026-05-07 00:44 5.69193 -76.64430 205 ft 4 kts 126°
2026-05-07 00:45 5.69207 -76.64453 200 ft 4 kts 115°
2026-05-07 00:45 5.69213 -76.64466 210 ft 0 kts 121°
2026-05-07 00:47 5.69199 -76.64443 204 ft 2 kts 121°
2026-05-07 00:47 5.69195 -76.64432 205 ft 1 kts 103°
2026-05-07 00:47 5.69228 -76.64403 196 ft 12 kts 28°
2026-05-07 00:48 5.69220 -76.64342 206 ft 9 kts 122°
2026-05-07 00:48 5.69178 -76.64274 200 ft 14 kts 122°
2026-05-07 00:48 5.69120 -76.64182 204 ft 16 kts 122°
2026-05-07 00:48 5.69062 -76.64090 203 ft 15 kts 122°
2026-05-07 00:49 5.69011 -76.64012 201 ft 12 kts 123°
2026-05-07 00:49 5.68970 -76.63945 212 ft 12 kts 124°
2026-05-07 00:49 5.68916 -76.63865 199 ft 13 kts 122°
2026-05-07 00:49 5.68869 -76.63790 205 ft 15 kts 122°
2026-05-07 00:50 5.68797 -76.63675 211 ft 23 kts 123°
2026-05-07 00:50 5.68710 -76.63539 211 ft 23 kts 122°
2026-05-07 00:50 5.68624 -76.63402 209 ft 23 kts 122°
2026-05-07 00:50 5.68574 -76.63299 212 ft 10 kts 116°
2026-05-07 00:51 5.68567 -76.63306 212 ft 1 kts 268°
2026-05-07 00:51 5.68584 -76.63339 211 ft 13 kts 297°
2026-05-07 00:51 5.68768 -76.63626 206 ft 91 kts 303°
2026-05-07 00:51 5.69248 -76.64388 206 ft 163 kts 302°
2026-05-07 00:52 5.69875 -76.65384 913 ft 171 kts 302°
2026-05-07 00:52 5.70539 -76.66437 1334 ft 188 kts 302°
2026-05-07 00:52 5.71285 -76.67613 1611 ft 211 kts 300°
2026-05-07 00:52 5.71698 -76.69095 1910 ft 235 kts 264°
2026-05-07 00:53 5.71031 -76.70649 2306 ft 257 kts 226°
2026-05-07 00:53 5.69462 -76.71522 2993 ft 266 kts 190°
2026-05-07 00:53 5.67618 -76.71377 3783 ft 271 kts 163°
2026-05-07 00:53 5.65842 -76.70712 4627 ft 274 kts 158°
2026-05-07 00:54 5.64070 -76.69976 5434 ft 277 kts 157°
2026-05-07 00:54 5.62279 -76.69230 6239 ft 280 kts 157°
2026-05-07 00:54 5.60464 -76.68479 6990 ft 283 kts 159°
2026-05-07 00:54 5.58569 -76.67896 7742 ft 286 kts 165°
2026-05-07 00:55 5.56614 -76.67463 8496 ft 290 kts 167°
2026-05-07 00:55 5.54623 -76.67086 9250 ft 293 kts 168°
2026-05-07 00:55 5.52609 -76.66715 9965 ft 296 kts 167°
2026-05-07 00:55 5.50556 -76.66323 10381 ft 310 kts 166°
2026-05-07 00:56 5.48416 -76.65686 10517 ft 331 kts 155°
2026-05-07 00:56 5.46328 -76.64566 10647 ft 350 kts 143°
2026-05-07 00:56 5.44438 -76.62952 10897 ft 362 kts 131°
2026-05-07 00:56 5.42861 -76.60968 11426 ft 366 kts 125°
2026-05-07 00:57 5.41353 -76.58937 12034 ft 368 kts 125°
2026-05-07 00:57 5.39798 -76.56849 12675 ft 370 kts 123°
2026-05-07 00:57 5.38572 -76.54585 13275 ft 370 kts 110°
2026-05-07 00:57 5.37920 -76.52122 13857 ft 371 kts 97°
2026-05-07 00:58 5.37875 -76.49502 14368 ft 374 kts 84°
2026-05-07 00:58 5.38461 -76.46950 14847 ft 378 kts 71°
2026-05-07 00:58 5.39489 -76.44548 15313 ft 382 kts 67°
2026-05-07 00:58 5.40565 -76.42105 15775 ft 385 kts 68°
2026-05-07 00:59 5.42748 -76.37112 16692 ft 391 kts 68°
2026-05-07 00:59 5.43841 -76.34601 17119 ft 394 kts 68°
2026-05-07 00:59 5.44930 -76.32105 17543 ft 397 kts 67°
2026-05-07 01:00 5.46042 -76.29561 17988 ft 400 kts 67°
2026-05-07 01:00 5.47161 -76.26997 18406 ft 403 kts 68°
2026-05-07 01:00 5.48066 -76.24332 18765 ft 405 kts 77°
2026-05-07 01:00 5.48461 -76.21495 19112 ft 407 kts 88°
2026-05-07 01:01 5.48322 -76.18688 19462 ft 410 kts 98°
2026-05-07 01:01 5.47783 -76.15871 19800 ft 413 kts 101°
2026-05-07 01:01 5.47201 -76.12994 20154 ft 416 kts 101°
2026-05-07 01:01 5.46624 -76.10141 20497 ft 419 kts 101°
2026-05-07 01:02 5.46045 -76.07269 20840 ft 421 kts 101°
2026-05-07 01:02 5.45468 -76.04413 21174 ft 425 kts 100°
2026-05-07 01:02 5.44885 -76.01506 21514 ft 427 kts 100°
2026-05-07 01:02 5.44291 -75.98532 21858 ft 430 kts 100°
2026-05-07 01:03 5.43709 -75.95612 22175 ft 433 kts 100°
2026-05-07 01:03 5.43112 -75.92638 22487 ft 436 kts 100°
2026-05-07 01:03 5.42509 -75.89643 22770 ft 440 kts 100°
2026-05-07 01:03 5.41900 -75.86626 23072 ft 442 kts 100°
2026-05-07 01:04 5.41285 -75.83592 23366 ft 445 kts 100°
2026-05-07 01:04 5.40668 -75.80535 23648 ft 447 kts 100°
2026-05-07 01:04 5.40052 -75.77470 23902 ft 450 kts 100°
2026-05-07 01:04 5.39435 -75.74391 24158 ft 451 kts 100°
2026-05-07 01:05 5.38814 -75.71298 24413 ft 453 kts 101°
2026-05-07 01:05 5.38189 -75.68198 24668 ft 454 kts 101°
2026-05-07 01:05 5.37560 -75.65083 24934 ft 455 kts 101°
2026-05-07 01:05 5.36932 -75.61967 25062 ft 457 kts 101°
2026-05-07 01:06 5.36298 -75.58821 25104 ft 464 kts 101°
2026-05-07 01:06 5.35655 -75.55633 25119 ft 467 kts 101°
2026-05-07 01:06 5.35009 -75.52436 25137 ft 468 kts 101°
2026-05-07 01:06 5.34363 -75.49232 25151 ft 469 kts 101°
2026-05-07 01:07 5.33716 -75.46023 25163 ft 469 kts 101°
2026-05-07 01:07 5.33069 -75.42820 25174 ft 469 kts 101°
2026-05-07 01:07 5.32641 -75.40704 25174 ft 469 kts 101°
2026-05-07 01:07 5.31988 -75.37488 25013 ft 469 kts 101°
2026-05-07 01:08 5.31335 -75.34276 24790 ft 470 kts 101°
2026-05-07 01:08 5.30686 -75.31066 24573 ft 470 kts 101°
2026-05-07 01:08 5.30037 -75.27850 24352 ft 471 kts 101°
2026-05-07 01:08 5.29388 -75.24627 24121 ft 471 kts 101°
2026-05-07 01:09 5.28737 -75.21410 23200 ft 471 kts 101°
2026-05-07 01:09 5.28068 -75.18181 22134 ft 472 kts 102°
2026-05-07 01:09 5.27294 -75.14999 21283 ft 468 kts 104°
2026-05-07 01:09 5.26414 -75.11874 20448 ft 464 kts 105°
2026-05-07 01:10 5.25474 -75.08801 19851 ft 455 kts 107°
2026-05-07 01:10 5.24549 -75.05855 18948 ft 444 kts 107°
2026-05-07 01:10 5.23641 -75.02932 17847 ft 433 kts 106°
2026-05-07 01:10 5.22784 -75.00100 17079 ft 413 kts 105°
2026-05-07 01:11 5.21995 -74.97423 16756 ft 386 kts 105°
2026-05-07 01:11 5.21275 -74.94931 16588 ft 359 kts 105°
2026-05-07 01:11 5.20569 -74.92621 16505 ft 333 kts 110°
2026-05-07 01:11 5.19616 -74.90577 16488 ft 322 kts 116°
2026-05-07 01:12 5.18532 -74.88618 16237 ft 316 kts 118°
2026-05-07 01:12 5.17441 -74.86729 16002 ft 311 kts 118°
2026-05-07 01:12 5.16348 -74.84868 15759 ft 308 kts 118°
2026-05-07 01:12 5.15267 -74.83030 15516 ft 306 kts 118°
2026-05-07 01:13 5.14194 -74.81197 15294 ft 304 kts 118°
2026-05-07 01:13 5.13159 -74.79423 15081 ft 303 kts 118°
2026-05-07 01:13 5.12102 -74.77603 14866 ft 301 kts 118°
2026-05-07 01:13 5.11055 -74.75787 14654 ft 300 kts 118°
2026-05-07 01:14 5.10015 -74.73982 14442 ft 298 kts 118°
2026-05-07 01:14 5.08981 -74.72186 14229 ft 297 kts 118°
2026-05-07 01:14 5.07948 -74.70398 14016 ft 295 kts 118°
2026-05-07 01:14 5.06943 -74.68667 13820 ft 294 kts 118°
2026-05-07 01:15 5.05919 -74.66902 13587 ft 292 kts 118°
2026-05-07 01:15 5.04900 -74.65143 13345 ft 292 kts 118°
2026-05-07 01:15 5.03882 -74.63383 13114 ft 291 kts 117°
2026-05-07 01:15 5.02868 -74.61629 12938 ft 291 kts 118°
2026-05-07 01:16 5.01857 -74.59872 12841 ft 291 kts 118°
2026-05-07 01:16 5.00846 -74.58116 12752 ft 290 kts 118°
2026-05-07 01:16 4.99831 -74.56362 12770 ft 291 kts 118°
2026-05-07 01:16 4.98814 -74.54605 12777 ft 291 kts 118°
2026-05-07 01:17 4.97808 -74.52864 12790 ft 284 kts 118°
2026-05-07 01:17 4.96839 -74.51186 12792 ft 272 kts 118°
2026-05-07 01:17 4.95898 -74.49557 12802 ft 269 kts 118°
2026-05-07 01:17 4.94962 -74.47937 12816 ft 268 kts 118°
2026-05-07 01:18 4.94026 -74.46323 12825 ft 267 kts 118°
2026-05-07 01:18 4.93178 -74.44859 12827 ft 267 kts 118°
2026-05-07 01:18 4.92395 -74.43505 12840 ft 268 kts 118°
2026-05-07 01:18 4.91555 -74.42139 12858 ft 266 kts 124°
2026-05-07 01:19 4.90323 -74.40806 12867 ft 258 kts 137°
2026-05-07 01:19 4.88974 -74.39669 12884 ft 247 kts 137°
2026-05-07 01:19 4.87691 -74.38581 12902 ft 238 kts 135°
2026-05-07 01:19 4.86562 -74.37391 12917 ft 234 kts 127°
2026-05-07 01:20 4.85562 -74.36106 12812 ft 234 kts 124°
2026-05-07 01:20 4.84584 -74.34804 12553 ft 234 kts 125°
2026-05-07 01:20 4.83601 -74.33500 12260 ft 234 kts 125°
2026-05-07 01:20 4.82615 -74.32197 11983 ft 236 kts 125°
2026-05-07 01:21 4.81632 -74.30897 11692 ft 238 kts 125°
2026-05-07 01:21 4.80640 -74.29587 11404 ft 234 kts 126°
2026-05-07 01:21 4.79652 -74.28283 11122 ft 230 kts 126°
2026-05-07 01:21 4.78704 -74.27029 10848 ft 229 kts 126°
2026-05-07 01:22 4.77745 -74.25762 10579 ft 227 kts 126°
2026-05-07 01:22 4.76781 -74.24489 10328 ft 222 kts 126°
2026-05-07 01:22 4.75882 -74.23301 10025 ft 211 kts 126°
2026-05-07 01:22 4.75011 -74.22152 9763 ft 196 kts 126°
2026-05-07 01:23 4.74210 -74.21093 9498 ft 187 kts 127°
2026-05-07 01:23 4.73444 -74.20081 9227 ft 178 kts 126°
2026-05-07 01:23 4.72707 -74.19108 8976 ft 173 kts 126°
2026-05-07 01:23 4.71990 -74.18160 8724 ft 170 kts 127°
2026-05-07 01:24 4.71289 -74.17234 8483 ft 167 kts 127°
2026-05-07 01:24 4.70615 -74.16338 8365 ft 150 kts 127°
2026-05-07 01:24 4.70164 -74.15746 8363 ft 61 kts 127°
2026-05-07 01:24 4.70033 -74.15568 8364 ft 5 kts 99°
2026-05-07 01:25 4.70070 -74.15508 8364 ft 13 kts 40°
2026-05-07 01:25 4.70141 -74.15454 8365 ft 12 kts 37°
2026-05-07 01:25 4.70168 -74.15391 8366 ft 10 kts 113°
2026-05-07 01:25 4.70126 -74.15330 8366 ft 11 kts 127°
2026-05-07 01:26 4.70080 -74.15270 8366 ft 11 kts 128°
2026-05-07 01:26 4.70029 -74.15206 8366 ft 12 kts 128°
2026-05-07 01:26 4.69979 -74.15138 8366 ft 12 kts 126°
2026-05-07 01:26 4.69926 -74.15069 8366 ft 13 kts 128°
2026-05-07 01:27 4.69871 -74.14996 8366 ft 13 kts 127°
2026-05-07 01:27 4.69813 -74.14921 8366 ft 14 kts 128°
2026-05-07 01:27 4.69838 -74.14844 8366 ft 13 kts 35°
2026-05-07 01:27 4.69913 -74.14789 8366 ft 14 kts 37°
2026-05-07 01:28 4.69987 -74.14732 8366 ft 13 kts 38°
2026-05-07 01:28 4.70045 -74.14691 8366 ft 9 kts 36°
2026-05-07 01:28 4.70093 -74.14652 8366 ft 9 kts 48°
2026-05-07 01:28 4.70084 -74.14596 8366 ft 9 kts 125°
2026-05-07 01:29 4.70047 -74.14547 8366 ft 10 kts 127°
2026-05-07 01:29 4.70005 -74.14492 8366 ft 10 kts 127°
2026-05-07 01:29 4.69962 -74.14435 8366 ft 10 kts 127°
2026-05-07 01:29 4.69919 -74.14378 8366 ft 10 kts 127°
2026-05-07 01:30 4.69882 -74.14328 8366 ft 5 kts 127°
2026-05-07 01:30 4.69858 -74.14313 8366 ft 4 kts 193°
2026-05-07 01:30 4.69835 -74.14334 8366 ft 5 kts 233°
2026-05-07 01:30 4.69818 -74.14353 8366 ft 3 kts 226°
2026-05-07 01:31 4.69806 -74.14365 8366 ft 0 kts 226°